Regional Weather Roundup
Issued by NWS Wilmington, NC

Home | Current Version | Previous Version | Text Only | Print | Product List | Glossary On
Versions: 1 2 3 4 5 6 7 8 9 10 11 12 13 14 15 16 17 18 19 20 21 22 23 24 25 26 27
000
ASUS42 KILM 261513
RWRILM
RWRILM
REGIONAL HOURLY WEATHER ROUNDUP
NATIONAL WEATHER SERVICE WILMINGTON NC
1100 AM EDT WED JUL 26 2017

NOTE: "FAIR" INDICATES FEW OR NO CLOUDS BELOW 12,000 FEET WITH NO
SIGNIFICANT WEATHER AND/OR OBSTRUCTIONS TO VISIBILITY.

...............WFO WILMINGTON COUNTY WARNING AREA...............

......COASTAL NC AND SC COUNTIES......

CITY           SKY/WX    TMP DP  RH WIND       PRES   REMARKS
WILMINGTON     CLOUDY    81  70  69 NE12      30.13F
N MYRTLE BEACH CLOUDY    83  75  77 NE7       30.10F HX  90
MYRTLE BEACH   MOSUNNY   82  72  69 E12       30.11F

......INLAND NC AND SC COUNTIES.......

CITY           SKY/WX    TMP DP  RH WIND       PRES   REMARKS
LUMBERTON      MOSUNNY   82  71  69 E8        30.14F
ELIZABETHTOWN  NOT AVBL
WHITEVILLE     PTSUNNY   82  72  72 NE9       30.13S
FLORENCE       PTSUNNY   84  76  76 E9        30.12F HX  93
DARLINGTON     CLOUDY    82  75  79 NE8       30.15S
KINGSTREE      CLOUDY    81  75  83 NE3       30.12R
HARTSVILLE     CLOUDY    81  73  78 E6        30.14S
BENNETTSVILLE  PTSUNNY   82  73  74 E7        30.14F
CONWAY         PTSUNNY   82  75  78 NE7       30.11F
GEORGETOWN     TSTM      75  73  94 CALM      30.13R
MARION         PTSUNNY   81  73  78 E6        30.13S

....................REST OF NORTH CAROLINA......................

.........EASTERN NC.........

CITY           SKY/WX    TMP DP  RH WIND       PRES   REMARKS
CAPE HATTERAS  CLOUDY    81  67  62 NE8G18    30.16S
JACKSONVILLE   PTSUNNY   79  73  82 NE9       30.17S
MOREHEAD CITY  CLOUDY    83  74  74 E10       30.15R
KENANSVILLE    CLOUDY    79  70  73 NE5       30.17S
NEW BERN       CLOUDY    82  72  71 NE9       30.17S
ELIZABETH CITY MOSUNNY   81  69  67 E9        30.20R

.........CENTRAL NC.........

CITY           SKY/WX    TMP DP  RH WIND       PRES   REMARKS
RALEIGH DURHAM MOSUNNY   82  64  54 VRB5      30.21R
ROCKY MOUNT    MOSUNNY   81  70  69 E6        30.20S
ROANOKE RAPIDS NOT AVBL
FAYETTEVILLE   MOSUNNY   83  71  67 E9        30.16S
HOFFMAN        PTSUNNY   82  69  64 E9        30.17S

.........WESTERN NC.........

CITY           SKY/WX    TMP DP  RH WIND       PRES   REMARKS
CHARLOTTE      CLOUDY    77  71  82 NE8       30.20S
GREENSBORO     CLOUDY    76  66  71 E3        30.22S
HICKORY        NOT AVBL
BOONE          NOT AVBL
ASHEVILLE      NOT AVBL

.....................REST OF SOUTH CAROLINA.....................

.........EASTERN SC.........

CITY           SKY/WX    TMP DP  RH WIND       PRES   REMARKS
CHARLESTON     CLOUDY    82  74  76 S5        30.12R
BEAUFORT MCAS  TSTM      75  75 100 S5        30.13  FOG
HILTON HEAD    PTSUNNY   75  75 100 NE10      30.09F

.........CENTRAL SC.........

CITY           SKY/WX    TMP DP  RH WIND       PRES   REMARKS
COLUMBIA       CLOUDY    83  74  74 E10       30.12S
ORANGEBURG     MOSUNNY   84  75  74 SE7       30.12S HX  92
SUMTER SHAW    CLOUDY    80  74  82 E7        30.11S

.........WESTERN SC.........

CITY           SKY/WX    TMP DP  RH WIND       PRES   REMARKS
GREENVILLE     NOT AVBL
ROCK HILL      CLOUDY    78  71  79 VRB5      30.19S
ANDERSON       SUNNY     85  72  65 E10       30.15S HX  91
CLEMSON        NOT AVBL
GREENWOOD      SUNNY     84  71  65 VRB7      30.15S


...................COASTAL AND OFFSHORE REPORTS..................

................LOCAL PIERS AND NC RESERVE................


STATION/POSITION TIME  SKY/WX   TEMP    WIND        PRES    VSBY
                                AIR SEA DIR/SP/G
                 (UTC)          (F)     (DEG/KT/KT) (MB)    (MI)
JOHNY MRCER PIER 1448            79 82   30/ 16/ 18 1019.3F
NC RESRV MASNBRO NOT AVBL
OCEAN CREST PIER NOT AVBL
SPRINGMAID  PIER 1448                               1019.0S


................COASTAL AND OFFSHORE BUOYS................


STATION/POSITION TIME  SKY/WX   TEMP    WIND        PRES    VSBY
                                AIR SEA DIR/SP/G
                 (UTC)          (F)     (DEG/KT/KT) (MB)    (MI)
DIMNDSHOAL 41025 1450            81 83   50/ 12/ 14 1020.6R
WVE H/P(F/S)=  3/ 5 SWL H/P/D(F/S/D)=  2/ 50/ 7

CAPE LOOKOUT     1500            79      40/ 15/ 18 1020.7R
ONSLOW BAY 41036 NOT AVBL
ONSLOW BAY 41064 1408            80 84   70/ 16/ 19 1019.8
ONSLOW BAY 41159 1443               84                N/A
WVE H/P(F/S)=  4/ 4 SWL H/P/D(F/S/D)=  2/130/22

MASNBO INL 41110 1459               81                N/A
WVE H/P(F/S)=  4/ 5

WILM HARBR 41108 1500               81                N/A
WVE H/P(F/S)=  3/ 5

27SE WRITB 41037 1408            80 82   90/ 16/ 21 1019.4F
FRYING PAN 41013 1500            82 82   60/  2/  4 1019.1
SUNST NRSH 41024 1408            81 83   80/  8/ 12 1019.4F
CAPRS NRSH 41029 1408            80 84   CALM  /  2 1018.9F
EDISTO     41004 1450            80 83  200/ 12/ 14 1018.8R
WVE H/P(F/S)=  3/10 SWL H/P/D(F/S/D)=  2/120/10



..........OFFSHORE BUOYS BEYOND 100 NM OFFSHORE...........
.....IN A TRIANGLE---HAT TO BERMUDA TO BAHAMAS TO HAT.....


STATION/POSITION TIME  SKY/WX   TEMP    WIND        PRES    VSBY
                                AIR SEA DIR/SP/G
                 (UTC)          (F)     (DEG/KT/KT) (MB)    (MI)
150E HAT   41001 1500            80 81   30/ 12/ 14 1020.0
W BERMUDA  41048 1500            83 84  280/  4/  8 1020.5
ATLANTIC S 41049 1450            83 84  140/ 10/ 10 1021.6S
WVE H/P(F/S)=  4/ 7 SWL H/P/D(F/S/D)=  3/130/ 7

E BAHAMAS  41046 1500            83 84   90/ 12/ 16 1018.6
NE BAHAMAS 41047 1500            84 85   80/  6/  8 1020.9
120E CANVRL41010 1500            85 85  210/  6/  8 1019.8

END




USA.gov is the U.S. government's official web portal to all federal, state and local government web resources and services.